User: anonymous
Location: Caltech
(34.1382°N, 118.1253°W)
Time: 01:15:43
(UTC-07:00)
Language:

SL-08 R/B - Orbit

View from above orbital plane
View from above orbital plane
View from above satellite
View from above satellite

Ground track
Ground track

The orbit data is extracted from the following two-line orbital elements,

1 27561U 02054C   14109.50519620  .00001220  00000-0  29045-3 0  1636
2 27561 098.0962 251.4953 0047793 150.5562 260.6016 14.54837298604349
Epoch (UTC): 19 April 2014 12:07:28
Eccentricity: 0.0047793
inclination: 98.0962°
perigee height: 676 km
apogee height: 744 km
right ascension of ascending node: 251.4953°
argument of perigee: 150.5562°
revolutions per day: 14.54837298
mean anomaly at epoch: 260.6016°
orbit number at epoch: 60434

The dashed part of the orbit path shows where the satellite is in the earth's shadow,  

DLR